OBJECT Z, 42848

Orbit data source: Space-Track

You're viewing an Uncataloged Satellite

Recently launched and/or uncataloged satellites may have evolving metadata. Metadata may include but not limited to: Owner, Maufacturer, Bus, Motor, and Mission.

OBJECT Z, 42848 is a satellite in SSO that was launched on Fri, 14 Jul 2017 UTC via a SOYUZ-2-1A launch vehicle from the Tyuratam Missile And Space Complex (TTMTR). Unknown objects in Earth's orbit typically refer to objects detected orbiting the Earth but have not yet been identified or cataloged. These objects could be anything from previously untracked satellites, spent rocket stages, debris from satellite collisions, or even natural meteoroids temporarily captured by Earth's gravity.

Loading next visibility...
Identifier
42848, 2017-042Z
Orbit
SSO
Country
Flag of TBDTBD
Related business
None
Manufacturer
Unknown
Mission
Non-operational Commercial Meteo Radio Occ.
Bus & Motor
Unknown
Mass
Unknown
Launch date (UTC)
2017-07-14 (8 years ago)
Launch vehicle
SOYUZ-2-1A
Launch site
Tyuratam Missile And Space Complex (TTMTR)
Object type
Unknown
Shape & HBR
Box + 2 Pan, 0.3 m
Radar Cross Section
0.079 m², Medium (>0.1 m² and < 1m²)

Expand to show TLE details & history
Last TLE update: 8 hours ago

TLE from 8 hours ago
0 OBJECT Z
1 42848U 17042Z   25298.21108934  .00006754  00000-0  47735-3 0  9995
2 42848  97.3730 106.1114 0006508 137.4357 222.7376 15.05182511451862
Epoch: 2025-10-25T05:03Z
TLE epoch observation values (Epoch: 2025-10-25T05:03:58.118Z)
Latitude
-0.00002°
Longitude
-3.72565°
Altitude
557.331 km
Speed
7.581 km/s
True Right ascension
07h 04m 26s
True Declination
0° 00' 00"
Sunlit
Object was in daylight at epoch
Visualization orbit readout
Latitude
Unknown
Longitude
Unknown
Altitude
Unknown
Speed
Unknown
Apparent Right ascension
Unknown
Apparent Declination
Unknown
Sunlit
N/A
Visualization observer readout
Local Sidereal Time
08:18:23
Azimuth
Unknown
Elevation
Unknown
Doppler factor
Unknown
Orbital elements
Apogee altitude
552.437 km
Perigee altitude
543.422 km
Semi-major axis
6,926.067 km
Eccentricity
0.00065
Inclination
97.373°
RAAN
106.1114°
Arg. of periapsis
137.4357°
True anomaly
222.68702°
Mean anomaly
222.7376°
Eccentric anomaly
222.71231°
Mean motion
3.76542 °/min
Orbital period
95.61 mins
BSTAR
0.00047735
Loading maneuver chart data...
Computing Atmospheric mass density...
Loading historical data...
Loading historical data...
Loading historical data...
Loading historical data...
Loading historical data...
Loading historical data...
Loading historical data...

Documentation

Showing up to 5 results
|